This demonstration page uses our WeatherBlox Daily Observations layout. Learn more.

Left ArrowRight Arrow

Hourly Observations for September 24, 2020

Temp ( °F °C ) Dew Point ( °F °C ) Humidity (%) Winds ( mph kmh ) Pressure ( in mb ) Visibility ( mi km ) Precip ( " mm )
12:52 am 00:52 Mostly Cloudy 64 17.8 60 15.6 87 87 SSE 10 17 29.88 1012 10 16 0.00 0.00
1:52 am 01:52 Mostly Cloudy 63 17.2 60 15.6 90 90 SSE 10 17 29.87 1012 10 16 0.00 0.00
2:52 am 02:52 Mostly Cloudy 64 17.8 60 15.6 87 87 SSE 12 19 29.86 1011 10 16 0.00 0.00
3:52 am 03:52 Mostly Cloudy 62 16.7 59 15 90 90 SSE 9 15 29.84 1011 10 16 0.00 0.00
4:52 am 04:52 Partly Cloudy 61 16.1 59 15 93 93 SE 12 19 29.83 1010 10 16 0.00 0.00
5:52 am 05:52 Mostly Clear 61 16.1 59 15 93 93 SSE 10 17 29.83 1010 10 16 0.00 0.00
6:52 am 06:52 Mostly Clear 62 16.7 59 15 90 90 SSE 8 13 29.83 1010 10 16 0.00 0.00
7:52 am 07:52 Sunny 61 16.1 59 15 93 93 SSE 7 11 29.84 1011 10 16 0.00 0.00
8:52 am 08:52 Sunny 64 17.8 60 15.6 87 87 SSE 7 11 29.84 1011 10 16 0.00 0.00
9:52 am 09:52 Mostly Sunny 68 20 60 15.6 76 76 SSW 6 9 29.86 1011 10 16 0.00 0.00
10:52 am 10:52 Mostly Sunny 72 22.2 61 16.1 68 68 VRB 3 6 29.85 1011 10 16 0.00 0.00
11:52 am 11:52 Mostly Sunny 73 22.8 61 16.1 66 66 S 5 7 29.84 1011 10 16 0.00 0.00
12:52 pm 12:52 Mostly Sunny 77 25 62 16.7 60 60 SSW 3 6 29.82 1010 10 16 0.00 0.00
1:52 pm 13:52 Mostly Sunny 79 26.1 62 16.7 56 56 VRB 3 6 29.81 1010 10 16 0.00 0.00
2:52 pm 14:52 Mostly Sunny 81 27.2 62 16.7 53 53 SSE 5 7 29.78 1009 10 16 0.00 0.00
3:52 pm 15:52 Mostly Sunny 83 28.3 61 16.1 48 48 S 8 13 29.77 1008 10 16 0.00 0.00
4:52 pm 16:52 Mostly Sunny 84 28.9 62 16.7 48 48 S 5 7 29.76 1008 10 16 0.00 0.00
5:52 pm 17:52 Mostly Sunny 84 28.9 61 16.1 46 46 SSE 3 6 29.76 1008 10 16 0.00 0.00
6:52 pm 18:52 Mostly Sunny 81 27.2 63 17.2 54 54 ENE 3 6 29.76 1008 10 16 0.00 0.00
7:52 pm 19:52 Mostly Clear 75 23.9 65 18.3 71 71 Calm 29.76 1008 10 16 0.00 0.00
8:52 pm 20:52 Mostly Clear 69 20.6 64 17.8 84 84 NNW 5 7 29.77 1008 10 16 0.00 0.00
9:52 pm 21:52 Mostly Clear 69 20.6 64 17.8 84 84 Calm 29.76 1008 10 16 0.00 0.00
10:52 pm 22:52 Mostly Clear 69 20.6 63 17.2 81 81 SSE 7 11 29.76 1008 10 16 0.00 0.00
11:52 pm 23:52 Mostly Clear 70 21.1 64 17.8 82 82 SSE 12 19 29.76 1008 10 16 0.00 0.00

Powered by AerisWeather